When you browse on this site, cookies collect data to enhance your experience and personalize the content and advertising you see.
Visit our Privacy Policy to learn more. By continuing to use the site, you agree to this use of cookies and data.
  • In United Kingdom
  • List of Countries
  • For 7 days
  • Water Temperature
  • Weather Map
  • Weather Widgets
  • user-avatar
    Login

    Hourly Weather Arambagh

    Today, 3 April, Friday

    Time Temperature Precipitation Wind Pressure Humidity
    00:00 +28°C° 0 mm 3 mps 754 mmHg 81%
    01:00 +28°C° 0 mm 3 mps 754 mmHg 80%
    02:00 +27°C° 0 mm 3 mps 754 mmHg 80%
    03:00 +27°C° 0 mm 3 mps 753 mmHg 79%
    04:00 +27°C° 0 mm 3 mps 754 mmHg 69%
    05:00 +27°C° 0 mm 2 mps 754 mmHg 60%
    06:00 +27°C° 0 mm 2 mps 755 mmHg 51%
    07:00 +30°C° 0 mm 3 mps 755 mmHg 40%
    08:00 +34°C° 0 mm 3 mps 756 mmHg 29%
    09:00 +36°C° 0 mm 4 mps 756 mmHg 18%
    10:00 +38°C° 0 mm 4 mps 756 mmHg 16%
    11:00 +40°C° 0 mm 3 mps 756 mmHg 14%
    12:00 +42°C° 0 mm 3 mps 755 mmHg 13%
    13:00 +43°C° 0 mm 4 mps 755 mmHg 12%
    14:00 +43°C° 0 mm 4 mps 754 mmHg 11%
    15:00 +45°C° 0 mm 5 mps 753 mmHg 10%
    16:00 +42°C° 0 mm 4 mps 753 mmHg 12%
    17:00 +40°C° 0 mm 3 mps 753 mmHg 13%
    18:00 +38°C° 0 mm 2 mps 753 mmHg 14%
    19:00 +36°C° 0 mm 2 mps 754 mmHg 18%
    20:00 +34°C° 0 mm 2 mps 755 mmHg 22%
    21:00 +31°C° 0 mm 2 mps 755 mmHg 26%
    22:00 +30°C° 0 mm 2 mps 756 mmHg 33%
    23:00 +29°C° 0 mm 2 mps 756 mmHg 41%

    Tomorrow, 4 April, Saturday

    Time Temperature Precipitation Wind Pressure Humidity
    00:00 +28°C° 0 mm 2 mps 756 mmHg 49%
    01:00 +28°C° 0 mm 2 mps 755 mmHg 50%
    02:00 +27°C° 0 mm 1 mps 755 mmHg 50%
    03:00 +27°C° 0 mm 1 mps 755 mmHg 51%
    04:00 +27°C° 0 mm 1 mps 755 mmHg 46%
    05:00 +26°C° 0 mm 1 mps 755 mmHg 41%
    06:00 +26°C° 0 mm 1 mps 755 mmHg 37%
    07:00 +29°C° 0 mm 1 mps 756 mmHg 29%
    08:00 +33°C° 0 mm 1 mps 756 mmHg 21%
    09:00 +36°C° 0 mm 1 mps 757 mmHg 14%
    10:00 +39°C° 0 mm 1 mps 757 mmHg 12%
    11:00 +41°C° 0 mm 1 mps 756 mmHg 10%
    12:00 +42°C° 0 mm 1 mps 756 mmHg 8%
    13:00 +43°C° 0 mm 2 mps 755 mmHg 8%
    14:00 +44°C° 0 mm 3 mps 754 mmHg 8%
    15:00 +44°C° 0 mm 3 mps 753 mmHg 8%
    16:00 +43°C° 0 mm 3 mps 753 mmHg 10%
    17:00 +40°C° 0 mm 2 mps 753 mmHg 11%
    18:00 +39°C° 0 mm 1 mps 753 mmHg 13%
    19:00 +36°C° 0 mm 3 mps 754 mmHg 26%
    20:00 +34°C° 0 mm 4 mps 754 mmHg 40%
    21:00 +32°C° 0 mm 5 mps 755 mmHg 53%
    22:00 +30°C° 0 mm 4 mps 755 mmHg 56%
    23:00 +29°C° 0 mm 3 mps 755 mmHg 60%

    Day after tomorrow, 5 April, Sunday

    Time Temperature Precipitation Wind Pressure Humidity
    00:00 +29°C° 0 mm 3 mps 755 mmHg 63%
    01:00 +28°C° 0 mm 2 mps 755 mmHg 62%
    02:00 +28°C° 0 mm 2 mps 755 mmHg 61%
    03:00 +27°C° 0 mm 1 mps 754 mmHg 60%
    04:00 +27°C° 0 mm 1 mps 755 mmHg 59%
    05:00 +27°C° 0 mm 1 mps 755 mmHg 58%
    06:00 +26°C° 0 mm 1 mps 755 mmHg 57%
    07:00 +29°C° 0 mm 1 mps 756 mmHg 47%
    08:00 +33°C° 0 mm 1 mps 756 mmHg 36%
    09:00 +34°C° 0 mm 0 mps 756 mmHg 25%
    10:00 +36°C° 0 mm 0 mps 756 mmHg 20%
    11:00 +41°C° 0 mm 1 mps 756 mmHg 15%
    12:00 +43°C° 0 mm 1 mps 756 mmHg 9%
    13:00 +45°C° 0 mm 2 mps 755 mmHg 9%
    14:00 +45°C° 0 mm 3 mps 754 mmHg 8%
    15:00 +45°C° 0 mm 4 mps 753 mmHg 8%
    16:00 +43°C° 0 mm 3 mps 753 mmHg 10%
    17:00 +42°C° 0 mm 3 mps 753 mmHg 12%
    18:00 +39°C° 0 mm 2 mps 752 mmHg 14%
    19:00 +37°C° 0 mm 3 mps 753 mmHg 26%
    20:00 +34°C° 0 mm 4 mps 754 mmHg 37%
    21:00 +32°C° 0 mm 4 mps 755 mmHg 49%
    22:00 +30°C° 0 mm 4 mps 755 mmHg 56%
    23:00 +29°C° 0 mm 3 mps 755 mmHg 64%

    6 April, Monday

    Time Temperature Precipitation Wind Pressure Humidity
    00:00 +28°C° 0 mm 2 mps 755 mmHg 71%
    01:00 +28°C° 0 mm 2 mps 754 mmHg 70%
    02:00 +28°C° 0 mm 3 mps 754 mmHg 69%
    03:00 +27°C° 0 mm 3 mps 754 mmHg 68%
    04:00 +27°C° 0 mm 3 mps 754 mmHg 67%
    05:00 +27°C° 0 mm 2 mps 754 mmHg 65%
    06:00 +26°C° 0 mm 2 mps 754 mmHg 63%
    07:00 +30°C° 0 mm 2 mps 754 mmHg 47%
    08:00 +35°C° 0 mm 2 mps 755 mmHg 32%
    09:00 +38°C° 0 mm 3 mps 756 mmHg 16%
    10:00 +40°C° 0 mm 3 mps 755 mmHg 13%
    11:00 +43°C° 0 mm 3 mps 755 mmHg 10%
    12:00 +45°C° 0 mm 3 mps 754 mmHg 7%
    13:00 +45°C° 0 mm 4 mps 753 mmHg 7%
    14:00 +47°C° 0 mm 5 mps 753 mmHg 7%
    15:00 +47°C° 0 mm 5 mps 752 mmHg 6%
    16:00 +45°C° 0 mm 4 mps 751 mmHg 8%
    17:00 +43°C° 0 mm 3 mps 751 mmHg 9%
    18:00 +40°C° 0 mm 1 mps 751 mmHg 10%
    19:00 +38°C° 0 mm 2 mps 751 mmHg 18%
    20:00 +35°C° 0 mm 4 mps 752 mmHg 26%
    21:00 +33°C° 0 mm 5 mps 753 mmHg 34%
    22:00 +32°C° 0 mm 5 mps 753 mmHg 43%
    23:00 +30°C° 0 mm 4 mps 753 mmHg 51%

    7 April, Tuesday

    Time Temperature Precipitation Wind Pressure Humidity
    00:00 +29°C° 0 mm 4 mps 753 mmHg 60%
    01:00 +29°C° 0 mm 4 mps 752 mmHg 58%
    02:00 +29°C° 0 mm 4 mps 752 mmHg 56%
    03:00 +29°C° 0 mm 3 mps 751 mmHg 54%
    04:00 +28°C° 0 mm 3 mps 751 mmHg 54%
    05:00 +28°C° 0 mm 3 mps 751 mmHg 55%
    06:00 +27°C° 0 mm 3 mps 751 mmHg 55%
    07:00 +30°C° 0 mm 3 mps 752 mmHg 44%
    08:00 +35°C° 0 mm 3 mps 753 mmHg 33%
    09:00 +38°C° 0 mm 3 mps 753 mmHg 22%
    10:00 +40°C° 0 mm 2 mps 753 mmHg 18%
    11:00 +43°C° 0 mm 2 mps 753 mmHg 13%
    12:00 +46°C° 0 mm 2 mps 752 mmHg 9%
    13:00 +46°C° 0 mm 2 mps 752 mmHg 9%
    14:00 +47°C° 0 mm 2 mps 751 mmHg 8%
    15:00 +47°C° 0 mm 3 mps 750 mmHg 8%
    16:00 +44°C° 0 mm 4 mps 750 mmHg 13%
    17:00 +41°C° 0 mm 6 mps 750 mmHg 17%
    18:00 +39°C° 0 mm 7 mps 750 mmHg 21%
    19:00 +38°C° 0 mm 6 mps 751 mmHg 23%
    20:00 +35°C° 0 mm 4 mps 751 mmHg 25%
    21:00 +34°C° 0 mm 3 mps 752 mmHg 27%
    22:00 +34°C° 0 mm 4 mps 752 mmHg 32%
    23:00 +33°C° 0 mm 4 mps 752 mmHg 38%

    8 April, Wednesday

    Time Temperature Precipitation Wind Pressure Humidity
    00:00 +32°C° 0 mm 5 mps 752 mmHg 43%
    01:00 +32°C° 0 mm 5 mps 751 mmHg 43%
    02:00 +30°C° 0 mm 5 mps 751 mmHg 43%
    03:00 +30°C° 0 mm 5 mps 751 mmHg 44%
    04:00 +29°C° 0 mm 4 mps 751 mmHg 52%
    05:00 +28°C° 0 mm 4 mps 751 mmHg 60%
    06:00 +28°C° 0 mm 3 mps 751 mmHg 68%
    07:00 +32°C° 0 mm 4 mps 752 mmHg 57%
    08:00 +35°C° 0 mm 4 mps 752 mmHg 46%
    09:00 +38°C° 0 mm 4 mps 753 mmHg 35%
    10:00 +41°C° 0 mm 4 mps 752 mmHg 28%
    11:00 +43°C° 0 mm 4 mps 752 mmHg 22%
    12:00 +45°C° 0 mm 4 mps 752 mmHg 16%
    13:00 +47°C° 0 mm 4 mps 751 mmHg 13%
    14:00 +47°C° 0 mm 4 mps 750 mmHg 11%
    15:00 +48°C° 0 mm 4 mps 749 mmHg 9%
    16:00 +43°C° 0 mm 4 mps 749 mmHg 16%
    17:00 +38°C° 0 mm 4 mps 749 mmHg 22%
    18:00 +35°C° 0 mm 4 mps 750 mmHg 29%
    19:00 +34°C° 0 mm 4 mps 751 mmHg 33%
    20:00 +33°C° 0 mm 4 mps 751 mmHg 38%
    21:00 +32°C° 0 mm 5 mps 752 mmHg 42%
    22:00 +32°C° 0 mm 4 mps 752 mmHg 40%
    23:00 +32°C° 0 mm 4 mps 752 mmHg 38%
    Show more